sat.trackr.live / text

‹ back to catalog

STARLINK-35860

NORAD 66881 · 2025-283D

PAYLOAD ACTIVE UNKNOWN

§ Identity

Operator
Country
US
Launch date
2025-12-04
Launch site
AFWTR
Launch vehicle
Mass (kg)
RCS (m²)

Purposes: comms

External: N2YO · Heavens-Above · Gunter

§ Orbital elements

Epoch: 2026-05-24T22:43:03.404352Z

Period
94.11 min
Inclination
53.1612°
Eccentricity
0.0001151
Mean motion
15.30204602 rev/d
Perigee alt
474.4 km
Apogee alt
476.0 km
Semi-major
6,853.3 km
B*
7.6410e-4
RAAN
29.6618°
Arg perigee
78.1852°
Mean anomaly
281.9278°
Rev number
2,752

§ Raw data

STARLINK-358601 66881U 25283D   26144.94656718  .00022342  00000+0  76410-3 0  99952 66881  53.1612  29.6618 0001151  78.1852 281.9278 15.30204602 27526

JSON: /api/v1/satellites/66881 · /tle

For live sub-satellite position, see the globe view (requires WebGL).

§ Visibility from observer

Set your observer location to see the next 7 days of passes ≥ 10°. The values pass through the URL so the page stays shareable.

No JS? Fill the form by hand. The geolocation button needs JavaScript.